This is the latest recevied weather packets stored in our database for station/object OE3CJB-13. If no packets are shown the sender has not sent any weather packets the latest 10 day(s).
| Time | Temp. | Humidity | Pressure | Rain* | Wind** | Luminosity | Snow |
|---|---|---|---|---|---|---|---|
| 1777672888 | 10° C | 45% | 758.6 hPa | 0 mm | - | - | - |
| 1777671926 | 10° C | 43% | 760.1 hPa | 0 mm | - | - | - |
| 1777671014 | 10.56° C | 41% | 762.5 hPa | 0 mm | - | - | - |
| 1777670150 | 10.56° C | 39% | 764.1 hPa | 0 mm | - | - | - |
| 1777669288 | 11.11° C | 37% | 764 hPa | 0 mm | - | - | - |
| 1777668326 | 11.67° C | 35% | 764 hPa | 0 mm | - | - | - |
| 1777667606 | 12.22° C | 34% | 764.8 hPa | 0 mm | - | - | - |
| 1777666550 | 12.22° C | 32% | 763.2 hPa | 0 mm | - | - | - |
| 1777665655 | 12.78° C | 29% | 764 hPa | 0 mm | - | - | - |
| 1777664726 | 13.33° C | 27% | 764 hPa | 0 mm | - | - | - |
| 1777663814 | 13.89° C | 26% | 763.2 hPa | 0 mm | - | - | - |
| 1777662950 | 13.89° C | 26% | 763.9 hPa | 0 mm | - | - | - |
| 1777662040 | 14.44° C | 25% | 762.4 hPa | 0 mm | - | - | - |
| 1777661126 | 15.56° C | 21% | 763.1 hPa | 0 mm | - | - | - |
| 1777660266 | 16.11° C | 21% | 762.3 hPa | 0 mm | - | - | - |
| 1777659350 | 17.22° C | 18% | 761.4 hPa | 0 mm | - | - | - |
| 1777658440 | 17.78° C | 14% | 759.7 hPa | 0 mm | - | - | - |
| 1777657574 | 18.33° C | 11% | 759 hPa | 0 mm | - | - | - |
| 1777656615 | 18.89° C | 10% | 758.9 hPa | 0 mm | - | - | - |
| 1777654841 | 19.44° C | - | 756 hPa | 0 mm | - | - | - |
| 1777653926 | 20° C | - | 754.4 hPa | 0 mm | - | - | - |
| 1777653014 | 20.56° C | - | 752.9 hPa | 0 mm | - | - | - |
| 1777652198 | 20.56° C | - | 752.2 hPa | 0 mm | - | - | - |
| 1777650374 | 21.11° C | - | 753.8 hPa | 0 mm | - | - | - |
| 1777649413 | 21.11° C | - | 751.5 hPa | 0 mm | - | - | - |
* Rain latest hour (hover to see other rain measurements)
** Current wind speed in m/s (hover to see current wind gust speed)